User: anonymous   Login
Location: Unspecified
(0.0000°N, 0.0000°E)
Time: 16:53:10
(UTC+00:00)
Language:

Explorer 11/Cluster Stage 4 - Orbit

View from above orbital plane
View from above orbital plane
View from above satellite
View from above satellite

Ground track
Ground track

The orbit data is extracted from the following two-line orbital elements,

1 00107U 61013A   16144.55548268  .00001417  00000-0  17132-3 0  9998
2 00107  28.7896 287.6828 0550973 196.1718 162.0598 14.07862600756107
Epoch (UTC): 23 May 2016 13:19:53
Eccentricity: 0.0550973
inclination: 28.7896°
perigee height: 467 km
apogee height: 1266 km
right ascension of ascending node: 287.6828°
argument of perigee: 196.1718°
revolutions per day: 14.07862600
mean anomaly at epoch: 162.0598°
orbit number at epoch: 75610

The dashed part of the orbit path shows where the satellite is in the earth's shadow,  

DLR